Location: Killam
(52.7910°N, 111.8608°W)
Time: 16:29:47
(UTC+00:00)

Vanguard 2 Rocket - Pass Details

Date: 19 February 2026
Orbit: 553 x 3286 km, 32.9° (Epoch: 11 March)

Event Time Altitude Azimuth Distance (km) Brightness Sun altitude
Rises 20:51:34 0° 240° (WSW) 7,222 12.2 24.4°
Reaches altitude 10° 20:57:23 10° 233° (SW) 6,048 12.2 24.1°
Maximum altitude 21:12:04 32° 180° (S) 3,670 11.5 23.3°
Drops below altitude 10° 21:22:21 10° 123° (ESE) 4,224 10.4 22.6°
Sets 21:25:34 0° 113° (ESE) 4,861 10.6 22.4°
